Location: Bemmer
(51.5498°N, 5.6249°E)
Time: 11:56:30
(UTC+00:00)

FALCON 9 DEB - Pass Details

Date: 03 March 2021
Orbit: 371 x 387 km, 53.0° (Epoch: 16 April)

Event Time Altitude Azimuth Distance (km) Brightness Sun altitude
Rises 19:17:52 0° 282° (WNW) 2,296 8.5 -18.8°
Reaches altitude 10° 19:19:57 10° 284° (WNW) 1,438 7.0 -19.1°
Enters shadow 19:23:09 74° 6° (N) 414 2.9 -19.6°
